Time,TemperatureF,DewpointF,PressureIn,WindDirection,WindDirectionDegrees,WindSpeedMPH,WindSpeedGustMPH,Humidity,HourlyPrecipIn,Conditions,Clouds,dailyrainin,SoftwareType,DateUTC
2013-10-10 00:09:00,64.1,62.9,30.06,WNW,297,0.0,1.0,96,0.00,,,0.00,Weather View 32 v70,2013-10-10 04:09:00,
2013-10-10 00:19:00,63.8,62.3,30.05,WNW,298,0.0,2.0,95,0.00,,,0.00,Weather View 32 v70,2013-10-10 04:19:00,
2013-10-10 00:29:00,63.5,62.0,30.05,WNW,297,0.0,2.0,95,0.00,,,0.00,Weather View 32 v70,2013-10-10 04:29:00,
2013-10-10 00:39:00,63.2,61.7,30.04,WNW,297,0.0,2.0,95,0.00,,,0.00,Weather View 32 v70,2013-10-10 04:39:00,
2013-10-10 00:49:00,63.0,61.8,30.04,WNW,297,0.0,2.0,96,0.00,,,0.00,Weather View 32 v70,2013-10-10 04:49:00,
2013-10-10 00:59:00,62.7,61.5,30.04,WNW,297,0.0,2.0,96,0.00,,,0.00,Weather View 32 v70,2013-10-10 04:59:00,
2013-10-10 01:09:00,62.6,61.4,30.04,WNW,298,0.0,2.0,96,0.00,,,0.00,Weather View 32 v70,2013-10-10 05:09:00,
2013-10-10 01:19:00,62.3,61.1,30.04,WNW,297,0.0,0.0,96,0.00,,,0.00,Weather View 32 v70,2013-10-10 05:19:00,
2013-10-10 01:29:00,62.1,60.9,30.04,WNW,297,0.0,0.0,96,0.00,,,0.00,Weather View 32 v70,2013-10-10 05:29:00,
2013-10-10 01:39:00,61.8,60.6,30.04,WNW,297,0.0,0.0,96,0.00,,,0.00,Weather View 32 v70,2013-10-10 05:39:00,
2013-10-10 01:49:00,61.6,60.4,30.04,WNW,297,0.0,0.0,96,0.00,,,0.00,Weather View 32 v70,2013-10-10 05:49:00,
2013-10-10 01:54:00,61.6,60.4,30.04,WNW,297,0.0,0.0,96,0.00,,,0.00,Weather View 32 v70,2013-10-10 05:54:00,
2013-10-10 01:59:00,61.6,60.4,30.04,WNW,297,0.0,0.0,96,0.00,,,0.00,Weather View 32 v70,2013-10-10 05:59:00,
2013-10-10 02:09:00,61.6,60.4,30.04,WNW,297,0.0,0.0,96,0.00,,,0.00,Weather View 32 v70,2013-10-10 06:09:00,
2013-10-10 02:19:00,61.4,60.2,30.04,WNW,297,0.0,0.0,96,0.00,,,0.00,Weather View 32 v70,2013-10-10 06:19:00,
2013-10-10 02:29:00,61.4,60.2,30.03,WNW,297,0.0,0.0,96,0.00,,,0.00,Weather View 32 v70,2013-10-10 06:29:00,
2013-10-10 02:39:00,61.3,60.1,30.04,WNW,297,0.0,0.0,96,0.00,,,0.00,Weather View 32 v70,2013-10-10 06:39:00,
2013-10-10 02:49:00,61.1,59.9,30.04,WNW,297,0.0,0.0,96,0.00,,,0.00,Weather View 32 v70,2013-10-10 06:49:00,
2013-10-10 02:54:00,61.1,59.9,30.04,WNW,297,0.0,0.0,96,0.00,,,0.00,Weather View 32 v70,2013-10-10 06:54:00,
2013-10-10 02:59:00,60.7,59.5,30.03,WNW,297,0.0,0.0,96,0.00,,,0.00,Weather View 32 v70,2013-10-10 06:59:00,
2013-10-10 03:09:00,60.2,59.1,30.03,WNW,297,0.0,0.0,96,0.00,,,0.00,Weather View 32 v70,2013-10-10 07:09:00,
2013-10-10 03:19:00,60.0,58.9,30.03,WNW,297,0.0,0.0,96,0.00,,,0.00,Weather View 32 v70,2013-10-10 07:19:00,
2013-10-10 03:29:00,59.7,58.6,30.03,WNW,297,0.0,0.0,96,0.00,,,0.00,Weather View 32 v70,2013-10-10 07:29:00,
2013-10-10 03:39:00,59.7,58.6,30.03,WNW,297,0.0,0.0,96,0.00,,,0.00,Weather View 32 v70,2013-10-10 07:39:00,
2013-10-10 03:49:00,59.6,58.5,30.03,WNW,298,0.0,0.0,96,0.00,,,0.00,Weather View 32 v70,2013-10-10 07:49:00,
2013-10-10 03:55:00,59.6,58.5,30.03,WNW,298,0.0,0.0,96,0.00,,,0.00,Weather View 32 v70,2013-10-10 07:55:00,
2013-10-10 03:59:00,59.5,58.4,30.03,WNW,298,0.0,0.0,96,0.00,,,0.00,Weather View 32 v70,2013-10-10 07:59:00,
2013-10-10 04:09:00,59.3,58.2,30.03,WNW,297,0.0,0.0,96,0.00,,,0.00,Weather View 32 v70,2013-10-10 08:09:00,
2013-10-10 04:19:00,59.2,58.1,30.02,WNW,298,0.0,0.0,96,0.00,,,0.00,Weather View 32 v70,2013-10-10 08:19:00,
2013-10-10 04:29:00,59.2,58.1,30.02,WNW,297,0.0,0.0,96,0.00,,,0.00,Weather View 32 v70,2013-10-10 08:29:00,
2013-10-10 04:39:00,59.0,57.9,30.02,WNW,297,0.0,0.0,96,0.00,,,0.00,Weather View 32 v70,2013-10-10 08:39:00,
2013-10-10 04:49:00,59.0,57.9,30.02,WNW,297,0.0,0.0,96,0.00,,,0.00,Weather View 32 v70,2013-10-10 08:49:00,
2013-10-10 04:55:00,59.0,57.9,30.02,WNW,297,0.0,0.0,96,0.00,,,0.00,Weather View 32 v70,2013-10-10 08:55:00,
2013-10-10 04:59:00,59.1,58.0,30.03,WNW,297,0.0,0.0,96,0.00,,,0.00,Weather View 32 v70,2013-10-10 08:59:00,
2013-10-10 05:09:00,58.9,57.8,30.03,WNW,297,0.0,0.0,96,0.00,,,0.00,Weather View 32 v70,2013-10-10 09:09:00,
2013-10-10 05:19:00,58.5,57.4,30.03,WNW,297,0.0,0.0,96,0.00,,,0.00,Weather View 32 v70,2013-10-10 09:19:00,
2013-10-10 05:29:00,58.2,57.1,30.03,WNW,297,0.0,0.0,96,0.00,,,0.00,Weather View 32 v70,2013-10-10 09:29:00,
2013-10-10 05:39:00,58.0,56.9,30.03,WNW,297,0.0,0.0,96,0.00,,,0.00,Weather View 32 v70,2013-10-10 09:39:00,
2013-10-10 05:49:00,57.5,56.4,30.03,WNW,297,0.0,1.0,96,0.00,,,0.00,Weather View 32 v70,2013-10-10 09:49:00,
2013-10-10 05:56:00,57.5,56.4,30.03,WNW,297,0.0,1.0,96,0.00,,,0.00,Weather View 32 v70,2013-10-10 09:56:00,
2013-10-10 05:59:00,57.3,56.2,30.03,WNW,297,0.0,1.0,96,0.01,,,0.01,Weather View 32 v70,2013-10-10 09:59:00,
2013-10-10 06:09:00,57.5,56.4,30.04,WNW,297,0.0,1.0,96,0.01,,,0.01,Weather View 32 v70,2013-10-10 10:09:00,
2013-10-10 06:19:00,57.5,56.4,30.04,WNW,297,0.0,1.0,96,0.01,,,0.01,Weather View 32 v70,2013-10-10 10:19:00,
2013-10-10 06:29:00,57.5,56.4,30.04,WNW,298,0.0,1.0,96,0.01,,,0.01,Weather View 32 v70,2013-10-10 10:29:00,
2013-10-10 06:39:00,57.0,55.9,30.04,WNW,297,0.0,1.0,96,0.01,,,0.01,Weather View 32 v70,2013-10-10 10:39:00,
2013-10-10 06:49:00,56.7,55.6,30.04,WNW,297,0.0,1.0,96,0.01,,,0.01,Weather View 32 v70,2013-10-10 10:49:00,
2013-10-10 06:57:00,56.7,55.6,30.04,WNW,297,0.0,1.0,96,0.01,,,0.01,Weather View 32 v70,2013-10-10 10:57:00,
2013-10-10 06:59:00,56.7,55.6,30.04,WNW,297,0.0,1.0,96,0.00,,,0.01,Weather View 32 v70,2013-10-10 10:59:00,
2013-10-10 07:09:00,56.7,55.6,30.04,WNW,297,0.0,0.0,96,0.00,,,0.01,Weather View 32 v70,2013-10-10 11:09:00,
2013-10-10 07:19:00,57.0,55.9,30.05,WNW,297,0.0,0.0,96,0.00,,,0.01,Weather View 32 v70,2013-10-10 11:19:00,
2013-10-10 07:29:00,57.2,56.1,30.05,WNW,297,0.0,0.0,96,0.00,,,0.01,Weather View 32 v70,2013-10-10 11:29:00,
2013-10-10 07:39:00,57.9,56.8,30.05,WNW,297,0.0,0.0,96,0.00,,,0.01,Weather View 32 v70,2013-10-10 11:39:00,
2013-10-10 07:49:00,58.8,57.9,30.05,WNW,297,0.0,0.0,97,0.00,,,0.01,Weather View 32 v70,2013-10-10 11:49:00,
2013-10-10 07:57:00,58.8,57.9,30.05,WNW,297,0.0,0.0,97,0.00,,,0.01,Weather View 32 v70,2013-10-10 11:57:00,
2013-10-10 07:59:00,59.4,58.5,30.05,WNW,297,0.0,1.0,97,0.00,,,0.01,Weather View 32 v70,2013-10-10 11:59:00,
2013-10-10 08:09:00,60.1,59.2,30.05,WNW,297,1.0,2.0,97,0.00,,,0.01,Weather View 32 v70,2013-10-10 12:09:00,
2013-10-10 08:19:00,60.9,60.0,30.05,West,280,0.0,2.0,97,0.00,,,0.01,Weather View 32 v70,2013-10-10 12:19:00,
2013-10-10 08:29:00,61.6,60.4,30.06,WNW,296,0.0,3.0,96,0.00,,,0.01,Weather View 32 v70,2013-10-10 12:29:00,
2013-10-10 08:39:00,62.4,61.2,30.06,West,275,0.0,4.0,96,0.00,,,0.01,Weather View 32 v70,2013-10-10 12:39:00,
2013-10-10 08:49:00,63.2,62.0,30.06,West,265,0.0,4.0,96,0.00,,,0.01,Weather View 32 v70,2013-10-10 12:49:00,
2013-10-10 08:58:00,63.2,62.0,30.06,West,265,0.0,4.0,96,0.00,,,0.01,Weather View 32 v70,2013-10-10 12:58:00,
2013-10-10 08:59:00,64.1,62.6,30.06,West,265,5.0,5.0,95,0.00,,,0.01,Weather View 32 v70,2013-10-10 12:59:00,
2013-10-10 09:09:00,65.0,63.5,30.06,West,269,0.0,5.0,95,0.00,,,0.01,Weather View 32 v70,2013-10-10 13:09:00,
2013-10-10 09:19:00,66.1,64.3,30.06,West,269,0.0,5.0,94,0.00,,,0.01,Weather View 32 v70,2013-10-10 13:19:00,
2013-10-10 09:29:00,67.5,65.1,30.06,WNW,300,0.0,5.0,92,0.00,,,0.01,Weather View 32 v70,2013-10-10 13:29:00,
2013-10-10 09:39:00,68.5,65.8,30.07,NW,309,0.0,5.0,91,0.00,,,0.01,Weather View 32 v70,2013-10-10 13:39:00,
2013-10-10 09:49:00,69.4,66.0,30.07,West,275,0.0,5.0,89,0.00,,,0.01,Weather View 32 v70,2013-10-10 13:49:00,
2013-10-10 09:58:00,69.4,66.0,30.07,West,275,0.0,5.0,89,0.00,,,0.01,Weather View 32 v70,2013-10-10 13:58:00,
2013-10-10 09:59:00,70.5,66.8,30.07,North,0,2.0,5.0,88,0.00,,,0.01,Weather View 32 v70,2013-10-10 13:59:00,
2013-10-10 10:09:00,71.7,66.6,30.07,NNW,328,0.0,6.0,84,0.00,,,0.01,Weather View 32 v70,2013-10-10 14:09:00,
2013-10-10 10:19:00,72.7,67.9,30.07,SE,132,0.0,6.0,85,0.00,,,0.01,Weather View 32 v70,2013-10-10 14:19:00,
2013-10-10 10:29:00,73.2,66.3,30.07,North,0,3.0,6.0,79,0.00,,,0.01,Weather View 32 v70,2013-10-10 14:29:00,
2013-10-10 10:39:00,73.7,66.0,30.07,North,5,3.0,8.0,77,0.00,,,0.01,Weather View 32 v70,2013-10-10 14:39:00,
2013-10-10 10:49:00,74.4,66.3,30.07,NE,49,3.0,8.0,76,0.00,,,0.01,Weather View 32 v70,2013-10-10 14:49:00,
2013-10-10 10:59:00,74.4,66.3,30.07,NE,49,3.0,8.0,76,0.00,,,0.01,Weather View 32 v70,2013-10-10 14:59:00,
2013-10-10 11:09:00,75.1,67.0,30.07,NE,34,0.0,9.0,76,0.00,,,0.01,Weather View 32 v70,2013-10-10 15:09:00,
2013-10-10 11:19:00,75.2,65.9,30.07,NE,34,0.0,9.0,73,0.00,,,0.01,Weather View 32 v70,2013-10-10 15:19:00,
2013-10-10 11:29:00,75.5,65.8,30.07,ENE,70,0.0,9.0,72,0.00,,,0.01,Weather View 32 v70,2013-10-10 15:29:00,
2013-10-10 11:39:00,76.3,66.2,30.07,WSW,249,6.0,9.0,71,0.00,,,0.01,Weather View 32 v70,2013-10-10 15:39:00,
2013-10-10 11:49:00,76.3,66.2,30.07,ENE,62,1.0,9.0,71,0.00,,,0.01,Weather View 32 v70,2013-10-10 15:49:00,
2013-10-10 11:59:00,77.0,65.6,30.07,North,5,4.0,9.0,68,0.00,,,0.01,Weather View 32 v70,2013-10-10 15:59:00,
2013-10-10 12:09:00,76.5,64.7,30.07,North,5,5.0,8.0,67,0.00,,,0.01,Weather View 32 v70,2013-10-10 16:09:00,
2013-10-10 12:19:00,77.1,64.8,30.06,North,5,3.0,8.0,66,0.00,,,0.01,Weather View 32 v70,2013-10-10 16:19:00,
2013-10-10 12:29:00,77.4,65.1,30.06,East,90,0.0,8.0,66,0.00,,,0.01,Weather View 32 v70,2013-10-10 16:29:00,
2013-10-10 12:39:00,78.2,64.5,30.06,SW,217,1.0,8.0,63,0.00,,,0.01,Weather View 32 v70,2013-10-10 16:39:00,
2013-10-10 12:49:00,78.4,63.3,30.05,WNW,286,1.0,8.0,60,0.00,,,0.01,Weather View 32 v70,2013-10-10 16:49:00,
2013-10-10 13:00:00,78.8,63.2,30.05,West,263,2.0,8.0,59,0.00,,,0.01,Weather View 32 v70,2013-10-10 17:00:00,
2013-10-10 13:10:00,78.3,62.3,30.05,NW,307,0.0,8.0,58,0.00,,,0.01,Weather View 32 v70,2013-10-10 17:10:00,
2013-10-10 13:19:00,79.2,64.1,30.05,NNE,15,1.0,8.0,60,0.00,,,0.01,Weather View 32 v70,2013-10-10 17:19:00,
2013-10-10 13:20:00,79.2,64.1,30.05,NNE,15,1.0,8.0,60,0.00,,,0.01,Weather View 32 v70,2013-10-10 17:20:00,
2013-10-10 13:29:00,79.7,62.6,30.04,West,269,3.0,8.0,56,0.00,,,0.01,Weather View 32 v70,2013-10-10 17:29:00,
2013-10-10 13:40:00,80.0,62.8,30.03,WSW,245,3.0,8.0,56,0.00,,,0.01,Weather View 32 v70,2013-10-10 17:40:00,
2013-10-10 13:49:00,80.0,63.3,30.02,WSW,253,1.0,8.0,57,0.00,,,0.01,Weather View 32 v70,2013-10-10 17:49:00,
2013-10-10 13:59:00,80.2,63.5,30.02,WSW,250,1.0,8.0,57,0.00,,,0.01,Weather View 32 v70,2013-10-10 17:59:00,
2013-10-10 14:09:00,80.5,62.8,30.01,WNW,283,0.0,8.0,55,0.00,,,0.01,Weather View 32 v70,2013-10-10 18:09:00,
2013-10-10 14:19:00,80.3,63.1,30.01,WNW,287,5.0,8.0,56,0.00,,,0.01,Weather View 32 v70,2013-10-10 18:19:00,
2013-10-10 14:29:00,80.6,64.4,30.01,NNE,24,2.0,8.0,58,0.00,,,0.01,Weather View 32 v70,2013-10-10 18:29:00,
2013-10-10 14:39:00,81.0,64.3,30.00,NNE,19,4.0,8.0,57,0.00,,,0.01,Weather View 32 v70,2013-10-10 18:39:00,
2013-10-10 14:49:00,81.1,62.8,30.00,WSW,257,0.0,8.0,54,0.00,,,0.01,Weather View 32 v70,2013-10-10 18:49:00,
2013-10-10 14:59:00,81.0,63.2,30.00,NW,304,3.0,8.0,55,0.00,,,0.01,Weather View 32 v70,2013-10-10 18:59:00,
2013-10-10 15:02:00,81.0,63.2,30.00,NW,304,3.0,8.0,55,0.00,,,0.01,Weather View 32 v70,2013-10-10 19:02:00,
2013-10-10 15:09:00,81.4,62.6,29.99,WNW,296,2.0,10.0,53,0.00,,,0.01,Weather View 32 v70,2013-10-10 19:09:00,
2013-10-10 15:19:00,81.4,62.6,29.99,West,273,1.0,10.0,53,0.00,,,0.01,Weather View 32 v70,2013-10-10 19:19:00,
2013-10-10 15:29:00,81.3,62.5,29.99,NNE,32,3.0,10.0,53,0.00,,,0.01,Weather View 32 v70,2013-10-10 19:29:00,
2013-10-10 15:39:00,81.3,62.5,29.99,WSW,248,0.0,10.0,53,0.00,,,0.01,Weather View 32 v70,2013-10-10 19:39:00,
2013-10-10 15:49:00,81.9,62.5,29.98,West,273,2.0,10.0,52,0.00,,,0.01,Weather View 32 v70,2013-10-10 19:49:00,
2013-10-10 15:59:00,81.5,62.7,29.98,NNE,17,3.0,10.0,53,0.00,,,0.01,Weather View 32 v70,2013-10-10 19:59:00,
2013-10-10 16:02:00,81.5,62.7,29.98,NNE,17,3.0,10.0,53,0.00,,,0.01,Weather View 32 v70,2013-10-10 20:02:00,
2013-10-10 16:09:00,81.7,62.8,29.98,North,351,3.0,10.0,53,0.00,,,0.01,Weather View 32 v70,2013-10-10 20:09:00,
2013-10-10 16:19:00,81.6,61.7,29.98,NNE,19,0.0,6.0,51,0.00,,,0.01,Weather View 32 v70,2013-10-10 20:19:00,
2013-10-10 16:29:00,81.8,62.9,29.98,WNW,284,0.0,7.0,53,0.00,,,0.01,Weather View 32 v70,2013-10-10 20:29:00,
2013-10-10 16:39:00,81.9,61.9,29.98,West,269,4.0,7.0,51,0.00,,,0.01,Weather View 32 v70,2013-10-10 20:39:00,
2013-10-10 16:49:00,81.6,62.2,29.98,NNE,23,3.0,7.0,52,0.00,,,0.01,Weather View 32 v70,2013-10-10 20:49:00,
2013-10-10 16:59:00,81.3,63.5,29.98,NE,49,0.0,7.0,55,0.00,,,0.01,Weather View 32 v70,2013-10-10 20:59:00,
2013-10-10 17:09:00,81.0,63.8,29.98,North,360,0.0,7.0,56,0.00,,,0.01,Weather View 32 v70,2013-10-10 21:09:00,
2013-10-10 17:19:00,81.0,63.2,29.98,NE,44,0.0,7.0,55,0.00,,,0.01,Weather View 32 v70,2013-10-10 21:19:00,
2013-10-10 17:29:00,80.8,63.6,29.98,NE,35,1.0,6.0,56,0.00,,,0.01,Weather View 32 v70,2013-10-10 21:29:00,
2013-10-10 17:39:00,80.5,62.8,29.97,NNE,22,0.0,6.0,55,0.00,,,0.01,Weather View 32 v70,2013-10-10 21:39:00,
2013-10-10 17:49:00,80.2,62.5,29.98,North,5,0.0,6.0,55,0.00,,,0.01,Weather View 32 v70,2013-10-10 21:49:00,
2013-10-10 17:59:00,79.8,62.7,29.97,North,5,0.0,5.0,56,0.00,,,0.01,Weather View 32 v70,2013-10-10 21:59:00,
2013-10-10 18:03:00,79.8,62.7,29.97,North,5,0.0,5.0,56,0.00,,,0.01,Weather View 32 v70,2013-10-10 22:03:00,
2013-10-10 18:09:00,79.2,64.5,29.97,North,5,0.0,5.0,61,0.00,,,0.01,Weather View 32 v70,2013-10-10 22:09:00,
2013-10-10 18:19:00,78.4,64.3,29.97,North,5,0.0,5.0,62,0.00,,,0.01,Weather View 32 v70,2013-10-10 22:19:00,
2013-10-10 18:30:00,77.5,64.3,29.97,North,5,0.0,5.0,64,0.00,,,0.01,Weather View 32 v70,2013-10-10 22:30:00,
2013-10-10 18:40:00,76.9,65.1,29.97,North,5,0.0,5.0,67,0.00,,,0.01,Weather View 32 v70,2013-10-10 22:40:00,
2013-10-10 18:50:00,76.1,66.0,29.97,North,5,0.0,3.0,71,0.00,,,0.01,Weather View 32 v70,2013-10-10 22:50:00,
2013-10-10 18:59:00,75.2,66.3,29.97,North,5,0.0,3.0,74,0.00,,,0.01,Weather View 32 v70,2013-10-10 22:59:00,
2013-10-10 19:04:00,75.2,66.3,29.97,North,5,0.0,3.0,74,0.00,,,0.01,Weather View 32 v70,2013-10-10 23:04:00,
2013-10-10 19:09:00,74.2,65.3,29.97,North,5,0.0,0.0,74,0.00,,,0.01,Weather View 32 v70,2013-10-10 23:09:00,
2013-10-10 19:19:00,73.2,65.9,29.98,North,5,0.0,0.0,78,0.00,,,0.01,Weather View 32 v70,2013-10-10 23:19:00,
2013-10-10 19:29:00,72.2,65.7,29.98,North,5,0.0,0.0,80,0.00,,,0.01,Weather View 32 v70,2013-10-10 23:29:00,
2013-10-10 19:39:00,71.4,65.2,29.98,North,5,0.0,0.0,81,0.00,,,0.01,Weather View 32 v70,2013-10-10 23:39:00,
2013-10-10 19:49:00,70.9,65.1,29.98,North,5,0.0,0.0,82,0.00,,,0.01,Weather View 32 v70,2013-10-10 23:49:00,
2013-10-10 19:59:00,70.1,64.3,29.99,North,5,0.0,1.0,82,0.00,,,0.01,Weather View 32 v70,2013-10-10 23:59:00,
2013-10-10 20:05:00,70.1,64.3,29.99,North,5,0.0,1.0,82,0.00,,,0.01,Weather View 32 v70,2013-10-11 00:05:00,
2013-10-10 20:09:00,69.5,64.8,29.99,North,5,0.0,1.0,85,0.00,,,0.01,Weather View 32 v70,2013-10-11 00:09:00,
2013-10-10 20:19:00,69.0,64.6,29.99,North,5,0.0,1.0,86,0.00,,,0.01,Weather View 32 v70,2013-10-11 00:19:00,
2013-10-10 20:29:00,68.5,64.5,29.99,North,5,0.0,1.0,87,0.00,,,0.01,Weather View 32 v70,2013-10-11 00:29:00,
2013-10-10 20:39:00,68.1,64.4,29.99,North,5,0.0,1.0,88,0.00,,,0.01,Weather View 32 v70,2013-10-11 00:39:00,
2013-10-10 20:49:00,67.7,64.0,29.99,North,5,0.0,1.0,88,0.00,,,0.01,Weather View 32 v70,2013-10-11 00:49:00,
2013-10-10 20:59:00,67.3,63.9,30.00,North,5,0.0,0.0,89,0.00,,,0.01,Weather View 32 v70,2013-10-11 00:59:00,
2013-10-10 21:05:00,67.3,63.9,30.00,North,5,0.0,0.0,89,0.00,,,0.01,Weather View 32 v70,2013-10-11 01:05:00,
2013-10-10 21:09:00,67.0,63.6,30.00,North,5,0.0,0.0,89,0.00,,,0.01,Weather View 32 v70,2013-10-11 01:09:00,
2013-10-10 21:19:00,66.7,63.3,30.00,North,5,0.0,0.0,89,0.00,,,0.01,Weather View 32 v70,2013-10-11 01:19:00,
2013-10-10 21:29:00,66.3,63.3,30.01,North,5,0.0,0.0,90,0.00,,,0.01,Weather View 32 v70,2013-10-11 01:29:00,
2013-10-10 21:39:00,66.1,63.1,30.01,North,5,0.0,0.0,90,0.00,,,0.01,Weather View 32 v70,2013-10-11 01:39:00,
2013-10-10 21:49:00,66.1,63.4,30.01,North,5,0.0,0.0,91,0.00,,,0.01,Weather View 32 v70,2013-10-11 01:49:00,
2013-10-10 21:59:00,66.1,63.4,30.01,North,5,0.0,0.0,91,0.00,,,0.01,Weather View 32 v70,2013-10-11 01:59:00,
2013-10-10 22:06:00,66.1,63.4,30.01,North,5,0.0,0.0,91,0.00,,,0.01,Weather View 32 v70,2013-10-11 02:06:00,
2013-10-10 22:09:00,65.9,63.2,30.01,North,5,0.0,0.0,91,0.00,,,0.01,Weather View 32 v70,2013-10-11 02:09:00,
2013-10-10 22:19:00,65.5,62.8,30.01,North,5,0.0,0.0,91,0.00,,,0.01,Weather View 32 v70,2013-10-11 02:19:00,
2013-10-10 22:29:00,65.8,63.4,30.01,North,5,0.0,0.0,92,0.00,,,0.01,Weather View 32 v70,2013-10-11 02:29:00,
2013-10-10 22:39:00,65.3,62.6,30.01,North,5,0.0,0.0,91,0.00,,,0.01,Weather View 32 v70,2013-10-11 02:39:00,
2013-10-10 22:49:00,64.9,62.2,30.01,North,5,0.0,0.0,91,0.00,,,0.01,Weather View 32 v70,2013-10-11 02:49:00,
2013-10-10 22:59:00,64.9,62.5,30.01,North,5,0.0,0.0,92,0.00,,,0.01,Weather View 32 v70,2013-10-11 02:59:00,
2013-10-10 23:06:00,64.9,62.5,30.01,North,5,0.0,0.0,92,0.00,,,0.01,Weather View 32 v70,2013-10-11 03:06:00,
2013-10-10 23:09:00,65.1,62.7,30.01,North,5,0.0,0.0,92,0.00,,,0.01,Weather View 32 v70,2013-10-11 03:09:00,
2013-10-10 23:19:00,64.5,61.8,30.01,North,5,0.0,1.0,91,0.00,,,0.01,Weather View 32 v70,2013-10-11 03:19:00,
2013-10-10 23:29:00,64.1,61.4,30.01,North,5,0.0,1.0,91,0.00,,,0.01,Weather View 32 v70,2013-10-11 03:29:00,
2013-10-10 23:39:00,63.8,61.4,30.01,North,5,0.0,1.0,92,0.00,,,0.01,Weather View 32 v70,2013-10-11 03:39:00,
2013-10-10 23:49:00,63.7,61.3,30.00,North,5,0.0,1.0,92,0.00,,,0.01,Weather View 32 v70,2013-10-11 03:49:00,
2013-10-10 23:59:00,63.6,61.2,30.00,North,355,0.0,2.0,92,0.00,,,0.00,Weather View 32 v70,2013-10-11 03:59:00,